DLH9LA EDDF-EDDP

Flight info

Callsign DLH9LA
Flight time 0h 37m
Altitude 23000
Route SULUS4D/07C SULUS Z12 LASGA/N0384F220 T953 VOCIM/N0378F210 T954 GOXLI GOXLI1R
Aircraft A321/M-SDE2E3FGIJ1LORWXY/HB1

Departure

Time 2026-04-15 11:30
Airport Frankfurt Main Airport (EDDF)

Arrival

Time 2026-04-15 12:07
Airport Leipzig/Halle Airport (EDDP)
Time Latitude Longitude Altitude Speed Heading
2026-04-15 10:57 50.04894 8.56996 356 ft 0 kts 295°
2026-04-15 11:19 50.04890 8.57010 364 ft 3 kts 293°
2026-04-15 11:19 50.04882 8.57039 359 ft 3 kts 295°
2026-04-15 11:19 50.04873 8.57066 363 ft 3 kts 288°
2026-04-15 11:19 50.04872 8.57088 364 ft 1 kts 250°
2026-04-15 11:20 50.04871 8.57085 362 ft 2 kts 245°
2026-04-15 11:20 50.04857 8.57070 359 ft 3 kts 207°
2026-04-15 11:20 50.04838 8.57060 359 ft 3 kts 197°
2026-04-15 11:20 50.04819 8.57051 358 ft 3 kts 199°
2026-04-15 11:21 50.04801 8.57039 356 ft 2 kts 204°
2026-04-15 11:21 50.04797 8.57037 356 ft 0 kts 205°
2026-04-15 11:24 50.04789 8.57031 356 ft 3 kts 205°
2026-04-15 11:25 50.04758 8.57008 359 ft 7 kts 205°
2026-04-15 11:25 50.04702 8.56969 359 ft 11 kts 205°
2026-04-15 11:25 50.04625 8.56913 358 ft 14 kts 205°
2026-04-15 11:25 50.04532 8.56885 359 ft 14 kts 189°
2026-04-15 11:26 50.04423 8.56847 363 ft 18 kts 190°
2026-04-15 11:26 50.04286 8.56809 363 ft 21 kts 195°
2026-04-15 11:26 50.04204 8.56607 359 ft 25 kts 250°
2026-04-15 11:26 50.04139 8.56331 360 ft 29 kts 249°
2026-04-15 11:27 50.04076 8.56061 359 ft 28 kts 249°
2026-04-15 11:27 50.04010 8.55794 356 ft 25 kts 248°
2026-04-15 11:27 50.03947 8.55529 356 ft 27 kts 249°
2026-04-15 11:27 50.03885 8.55264 351 ft 21 kts 249°
2026-04-15 11:28 50.03829 8.55038 352 ft 24 kts 249°
2026-04-15 11:28 50.03768 8.54786 348 ft 26 kts 251°
2026-04-15 11:28 50.03704 8.54504 351 ft 29 kts 250°
2026-04-15 11:28 50.03636 8.54311 353 ft 14 kts 201°
2026-04-15 11:29 50.03528 8.54362 349 ft 17 kts 142°
2026-04-15 11:29 50.03520 8.54545 347 ft 21 kts 70°
2026-04-15 11:29 50.03631 8.55001 347 ft 84 kts 70°
2026-04-15 11:29 50.03927 8.56233 370 ft 154 kts 69°
2026-04-15 11:30 50.04319 8.57813 1090 ft 158 kts 69°
2026-04-15 11:30 50.04716 8.59476 1760 ft 175 kts 70°
2026-04-15 11:30 50.05147 8.61404 2174 ft 201 kts 71°
2026-04-15 11:30 50.05634 8.63580 2579 ft 224 kts 71°
2026-04-15 11:31 50.06166 8.65930 3234 ft 235 kts 71°
2026-04-15 11:31 50.06727 8.68414 3942 ft 249 kts 72°
2026-04-15 11:31 50.07170 8.70950 5146 ft 241 kts 86°
2026-04-15 11:31 50.07051 8.73591 5859 ft 256 kts 101°
2026-04-15 11:32 50.06722 8.76390 6608 ft 268 kts 102°
2026-04-15 11:32 50.06374 8.79285 7444 ft 275 kts 102°
2026-04-15 11:32 50.06022 8.82238 8325 ft 281 kts 102°
2026-04-15 11:32 50.05780 8.85278 9245 ft 287 kts 91°
2026-04-15 11:33 50.05824 8.88416 10130 ft 292 kts 89°
2026-04-15 11:33 50.05881 8.91658 10640 ft 311 kts 89°
2026-04-15 11:33 50.05941 8.95159 10926 ft 335 kts 89°
2026-04-15 11:33 50.06005 8.98900 11257 ft 354 kts 89°
2026-04-15 11:34 50.06071 9.02775 11897 ft 362 kts 89°
2026-04-15 11:34 50.06137 9.06709 12657 ft 366 kts 89°
2026-04-15 11:34 50.06197 9.10692 13428 ft 370 kts 89°
2026-04-15 11:34 50.06255 9.14723 14163 ft 376 kts 89°
2026-04-15 11:35 50.06314 9.18809 14835 ft 380 kts 89°
2026-04-15 11:35 50.06375 9.22933 15526 ft 383 kts 89°
2026-04-15 11:35 50.06434 9.27093 16227 ft 386 kts 89°
2026-04-15 11:35 50.06492 9.31297 16930 ft 390 kts 89°
2026-04-15 11:36 50.06544 9.35534 17637 ft 394 kts 89°
2026-04-15 11:36 50.06597 9.39812 18309 ft 397 kts 89°
2026-04-15 11:36 50.06648 9.44131 18908 ft 401 kts 89°
2026-04-15 11:36 50.06696 9.48488 19470 ft 404 kts 89°
2026-04-15 11:37 50.06747 9.52886 20042 ft 408 kts 89°
2026-04-15 11:37 50.06799 9.57317 20609 ft 411 kts 89°
2026-04-15 11:37 50.06847 9.61726 21153 ft 415 kts 89°
2026-04-15 11:37 50.06897 9.66294 21718 ft 418 kts 88°
2026-04-15 11:38 50.06944 9.70836 22256 ft 422 kts 88°
2026-04-15 11:38 50.06989 9.75424 22816 ft 425 kts 89°
2026-04-15 11:38 50.07030 9.80040 23166 ft 428 kts 89°
2026-04-15 11:38 50.07068 9.84700 23241 ft 434 kts 89°
2026-04-15 11:39 50.07105 9.89417 23237 ft 437 kts 89°
2026-04-15 11:39 50.07139 9.94152 23252 ft 438 kts 89°
2026-04-15 11:39 50.07174 9.98902 23252 ft 438 kts 89°
2026-04-15 11:39 50.07207 10.03642 23257 ft 438 kts 89°
2026-04-15 11:40 50.07243 10.08384 23253 ft 438 kts 89°
2026-04-15 11:40 50.07274 10.13130 23258 ft 438 kts 89°
2026-04-15 11:40 50.07302 10.17860 23257 ft 437 kts 89°
2026-04-15 11:40 50.07325 10.22590 23257 ft 437 kts 89°
2026-04-15 11:41 50.07346 10.27319 23250 ft 437 kts 89°
2026-04-15 11:41 50.07369 10.32050 23249 ft 437 kts 89°
2026-04-15 11:41 50.07392 10.36774 23246 ft 437 kts 89°
2026-04-15 11:41 50.07416 10.41504 23244 ft 436 kts 89°
2026-04-15 11:42 50.07441 10.46229 23246 ft 436 kts 89°
2026-04-15 11:42 50.07465 10.50946 23242 ft 436 kts 89°
2026-04-15 11:42 50.07484 10.55676 23240 ft 436 kts 89°
2026-04-15 11:42 50.07495 10.60395 23250 ft 436 kts 89°
2026-04-15 11:43 50.07572 10.65108 23248 ft 435 kts 83°
2026-04-15 11:43 50.08105 10.69718 23251 ft 433 kts 73°
2026-04-15 11:43 50.09146 10.74098 23248 ft 431 kts 63°
2026-04-15 11:43 50.10658 10.78104 23244 ft 429 kts 53°
2026-04-15 11:44 50.12566 10.81659 23235 ft 427 kts 46°
2026-04-15 11:44 50.14555 10.85092 23239 ft 427 kts 46°
2026-04-15 11:44 50.16541 10.88547 23221 ft 428 kts 47°
2026-04-15 11:44 50.18523 10.92008 23219 ft 428 kts 47°
2026-04-15 11:45 50.20505 10.95477 23214 ft 428 kts 47°
2026-04-15 11:45 50.22487 10.98954 23213 ft 429 kts 47°
2026-04-15 11:45 50.24471 11.02436 23213 ft 429 kts 47°
2026-04-15 11:45 50.26456 11.05918 23214 ft 429 kts 47°
2026-04-15 11:46 50.28441 11.09404 23212 ft 429 kts 47°
2026-04-15 11:46 50.30429 11.12891 23226 ft 429 kts 47°
2026-04-15 11:46 50.32497 11.16244 23230 ft 427 kts 39°
2026-04-15 11:46 50.34896 11.18965 23242 ft 425 kts 28°
2026-04-15 11:47 50.37563 11.20913 23238 ft 423 kts 18°
2026-04-15 11:47 50.40402 11.22023 23234 ft 421 kts
2026-04-15 11:47 50.43315 11.22294 23234 ft 419 kts 357°
2026-04-15 11:47 50.46224 11.22077 23231 ft 419 kts 356°
2026-04-15 11:48 50.49134 11.21856 23229 ft 419 kts 356°
2026-04-15 11:48 50.52045 11.21635 23230 ft 419 kts 356°
2026-04-15 11:48 50.54959 11.21420 23233 ft 419 kts 356°
2026-04-15 11:48 50.57872 11.21205 23222 ft 419 kts 356°
2026-04-15 11:49 50.60797 11.21101 23212 ft 421 kts
2026-04-15 11:49 50.63703 11.21691 23224 ft 423 kts 11°
2026-04-15 11:49 50.66521 11.23048 23225 ft 425 kts 20°
2026-04-15 11:49 50.69223 11.24972 23227 ft 426 kts 23°
2026-04-15 11:50 50.71914 11.26939 23224 ft 427 kts 23°
2026-04-15 11:50 50.74606 11.28910 23226 ft 427 kts 23°
2026-04-15 11:50 50.77299 11.30880 23245 ft 427 kts 23°
2026-04-15 11:50 50.79996 11.32853 23263 ft 426 kts 23°
2026-04-15 11:51 50.82687 11.34823 23254 ft 426 kts 23°
2026-04-15 11:51 50.85381 11.36799 23250 ft 427 kts 23°
2026-04-15 11:51 50.88069 11.38772 23250 ft 427 kts 23°
2026-04-15 11:51 50.90765 11.40749 23247 ft 427 kts 23°
2026-04-15 11:52 50.93458 11.42724 23245 ft 427 kts 23°
2026-04-15 11:52 50.96151 11.44707 23244 ft 427 kts 23°
2026-04-15 11:52 50.98840 11.46697 23224 ft 426 kts 23°
2026-04-15 11:52 51.01513 11.48678 22587 ft 422 kts 23°
2026-04-15 11:53 51.04165 11.50660 21730 ft 420 kts 25°
2026-04-15 11:53 51.06610 11.53173 20969 ft 419 kts 37°
2026-04-15 11:53 51.08661 11.56438 20409 ft 417 kts 49°
2026-04-15 11:53 51.10272 11.60256 19668 ft 416 kts 61°
2026-04-15 11:54 51.11367 11.64491 18975 ft 414 kts 73°
2026-04-15 11:54 51.11901 11.68964 18271 ft 410 kts 84°
2026-04-15 11:54 51.12139 11.73465 17488 ft 407 kts 85°
2026-04-15 11:54 51.12364 11.77937 16768 ft 403 kts 85°
2026-04-15 11:55 51.12586 11.82353 16100 ft 398 kts 84°
2026-04-15 11:55 51.13223 11.86507 15951 ft 377 kts 65°
2026-04-15 11:55 51.14625 11.89873 15825 ft 357 kts 44°
2026-04-15 11:55 51.16544 11.92174 15699 ft 337 kts 25°
2026-04-15 11:56 51.18691 11.93339 15533 ft 319 kts
2026-04-15 11:56 51.20867 11.93435 15195 ft 309 kts 349°
2026-04-15 11:56 51.22976 11.92893 14778 ft 306 kts 348°
2026-04-15 11:56 51.24992 11.92089 14364 ft 300 kts 332°
2026-04-15 11:57 51.26626 11.90147 13923 ft 292 kts 309°
2026-04-15 11:57 51.27714 11.83980 12339 ft 303 kts 265°
2026-04-15 11:57 51.27531 11.80609 11713 ft 305 kts 265°
2026-04-15 11:58 51.27346 11.77231 11170 ft 305 kts 265°
2026-04-15 11:58 51.27162 11.73871 10662 ft 303 kts 265°
2026-04-15 11:58 51.27008 11.70524 10135 ft 302 kts 270°
2026-04-15 11:58 51.27475 11.67295 9619 ft 300 kts 295°
2026-04-15 11:59 51.28726 11.64644 9095 ft 300 kts 313°
2026-04-15 11:59 51.30263 11.62394 8569 ft 300 kts 325°
2026-04-15 11:59 51.32153 11.61161 8370 ft 290 kts 344°
2026-04-15 11:59 51.34105 11.60454 8002 ft 286 kts 352°
2026-04-15 12:00 51.36048 11.60820 7676 ft 283 kts 21°
2026-04-15 12:00 51.37622 11.62643 7265 ft 282 kts 52°
2026-04-15 12:00 51.38415 11.65454 6869 ft 278 kts 82°
2026-04-15 12:00 51.38603 11.68519 6450 ft 276 kts 87°
2026-04-15 12:01 51.38742 11.71582 6040 ft 275 kts 88°
2026-04-15 12:01 51.38892 11.74567 5894 ft 263 kts 86°
2026-04-15 12:01 51.39040 11.77433 5744 ft 256 kts 86°
2026-04-15 12:01 51.39186 11.80300 5430 ft 261 kts 85°
2026-04-15 12:02 51.39335 11.83230 5086 ft 267 kts 86°
2026-04-15 12:02 51.39437 11.85243 4833 ft 269 kts 86°
2026-04-15 12:02 51.39586 11.88196 4458 ft 260 kts 86°
2026-04-15 12:02 51.39727 11.90992 4102 ft 245 kts 86°
2026-04-15 12:03 51.39858 11.93633 3794 ft 230 kts 86°
2026-04-15 12:03 51.39980 11.96092 3497 ft 213 kts 86°
2026-04-15 12:03 51.40093 11.98384 3226 ft 203 kts 86°
2026-04-15 12:03 51.40201 12.00600 2948 ft 197 kts 86°
2026-04-15 12:04 51.40306 12.02741 2675 ft 190 kts 86°
2026-04-15 12:04 51.40408 12.04828 2424 ft 187 kts 86°
2026-04-15 12:04 51.40509 12.06897 2175 ft 187 kts 85°
2026-04-15 12:04 51.40607 12.08929 1928 ft 177 kts 85°
2026-04-15 12:05 51.40699 12.10823 1697 ft 163 kts 86°
2026-04-15 12:05 51.40783 12.12573 1470 ft 152 kts 86°
2026-04-15 12:05 51.40861 12.14209 1265 ft 143 kts 86°
2026-04-15 12:05 51.40940 12.15768 1046 ft 139 kts 86°
2026-04-15 12:06 51.41024 12.17271 887 ft 133 kts 88°
2026-04-15 12:06 51.41078 12.18727 685 ft 129 kts 85°
2026-04-15 12:06 51.41148 12.20119 527 ft 123 kts 85°
2026-04-15 12:06 51.41205 12.21426 453 ft 106 kts 86°
2026-04-15 12:07 51.41243 12.22190 456 ft 48 kts 85°
2026-04-15 12:07 51.41264 12.22691 461 ft 42 kts 85°
2026-04-15 12:07 51.41285 12.23133 465 ft 36 kts 85°
2026-04-15 12:07 51.41345 12.23252 465 ft 14 kts
2026-04-15 12:08 51.41460 12.23242 460 ft 19 kts 355°
2026-04-15 12:08 51.41575 12.23227 462 ft 12 kts 352°
2026-04-15 12:08 51.41617 12.23127 465 ft 12 kts 286°
2026-04-15 12:08 51.41641 12.22979 464 ft 15 kts 284°
2026-04-15 12:09 51.41674 12.22800 464 ft 18 kts 288°
2026-04-15 12:09 51.41709 12.22587 460 ft 22 kts 285°
2026-04-15 12:09 51.41746 12.22371 455 ft 15 kts 285°
2026-04-15 12:09 51.41779 12.22178 450 ft 21 kts 285°
2026-04-15 12:10 51.41822 12.21947 439 ft 17 kts 299°
2026-04-15 12:10 51.41878 12.21938 443 ft 10 kts 17°
2026-04-15 12:10 51.41924 12.21959 442 ft 0 kts 15°